Other Surface Observations
Issued by NWS

Current Version | Previous Version | Text Only | Print | Product List | Glossary On
Versions: 1 2 3 4 5 6 7 8 9 10 11 12 13 14 15 16 17 18 19 20 21 22 23 24 25 26 27 28 29 30 31 32 33 34 35 36 37 38 39 40 41 42 43 44 45 46 47 48 49 50
702
SXUS52 KTAE 230118
OSOTAE
OSOTAE
North Florida/South Alabama/Southwest Georgia Weather Roundup
National Weather Service Tallahassee Florida
900 PM EDT SAT JUL 22 2017

Note: "fair" indicates few or no clouds below 12,000 feet with no
significant weather and/or obstructions to visibility.

!FLZ017-115-028-034-025-230200
...North Florida...

CITY           SKY/WX    TMP DP  RH WIND       PRES   REMARKS
TALLAHASSEE    MOCLDY    82  78  88 S6        30.00R HX  91
APALACHICOLA   PTCLDY    84  77  79 SW8       30.00S HX  94
PERRY          CLOUDY    81  77  87 CALM      30.02S
CROSS CITY     CLOUDY    76  75  95 SW5       30.06S
JACKSONVILLE   CLOUDY    75  74  96 SW6       30.00S
$$

!FLZ112-006-005-002-011-230200
...Florida Panhandle...

CITY           SKY/WX    TMP DP  RH WIND       PRES   REMARKS
MARIANNA       CLEAR     81  75  82 S7        29.99R
BONIFAY        NOT AVBL
PANAMA CITY NW FAIR      83  76  79 S5        29.98S HX  91
TYNDALL AFB    NOT AVBL
TYND DRONE APT NOT AVBL
DE FUNIAK SPR  FAIR      81  74  81 CALM      30.00S
EGLIN AFB      NOT AVBL
DESTIN         MOCLDY    88  74  63 VRB5      29.98S HX  96
HURLBURT       NOT AVBL
CRESTVIEW      CLOUDY    82  74  76 SW6       30.00S
PENSACOLA      PTCLDY    86  73  65 SW8       29.98R HX  93
$$

!ALZ063-066-230200
...South Alabama...

CITY           SKY/WX    TMP DP  RH WIND       PRES   REMARKS
DOTHAN         CLEAR     81  74  79 S8        30.02S
OZARK CAIRNS   NOT AVBL
FT RUCKER HELI NOT AVBL
RUCKER HELI 3  NOT AVBL
RUCKER HELI 2  NOT AVBL
FLORALA APT    CLEAR     82  74  76 SW3       30.01R
ANDALUSIA      PTCLDY    83  74  74 CALM      29.99R
TROY           CLEAR     81  75  82 SW5       29.99R
EUFALA         TSTM      82  74  76 S8G20     29.99R
MOBILE         CLOUDY    82  74  76 SW3       29.98S
$$

!GAZ120>161-230200
...Southwest and South Central Georgia...

CITY           SKY/WX    TMP DP  RH WIND       PRES   REMARKS
THOMASVILLE    FAIR      81  79  94 CALM      30.02R
BAINBRIDGE     PTCLDY    84  79  84 SW6       30.00R HX  96
MOODY AFB      NOT AVBL
VALDOSTA       CLOUDY    80  76  87 S5        30.00R
MOULTRIE       CLEAR     81  75  83 SW5       30.01S
BLAKELY        CLOUDY    84  73  70 SW9       29.99R HX  91
ALBANY         PTCLDY    85  75  72 S12       30.00R HX  93
TIFTON         FAIR      82  74  77 SW10      30.00R
FITZGERALD     MOCLDY    86  77  75 S6        30.00R HX  96
CORDELE        FAIR      92  72  51 SW3       29.98R HX  99
AMERICUS       FAIR      82  70  65 SW5       30.00R
HOMERVILLE     FAIR      81  75  83 SW6       30.01R
$$

!GMZ750-755-770-775-230200
...Coastal and Buoy Obs...

STATION/POSITION TIME  TEMP    WIND        PRES    VSBY  WAVE
                       AIR SEA DIR/SP/G                  HT/PER
                 (UTC) (F)     (DEG/KT/KT) (MB)    (MI)  (FT/S)
KEATON BEACH     0100   83     240/ 12/ 13 1016.1R
CEDAR KEY        0100   83     220/  9/ 12 1016.5F
C TOWER          NOT AVBL
APALACHICOLA BUO 0050   85 87  190/  8/ 10 1016.4F         1/ 3
PANAMA CITY BUOY 0050   83 85  220/ 10/ 12 1016.1R         1/ 8
MOBILE BUOY      0100   84 86  200/ 10/ 12 1015.1
ORANGE BCH AL BU 0050   84 89  220/ 10/ 12 1015.0R         1/ 3
$$




USA.gov is the U.S. government's official web portal to all federal, state and local government web resources and services.